Location: ??
(31.9467°N, 34.8903°E)
Time: 18:15:46
(UTC+00:00)

CZ-4 R/B - Pass Details

Date: 29 October 2020
Orbit: 532 x 598 km, 97.7° (Epoch: 30 November)

Event Time Altitude Azimuth Distance (km) Brightness Sun altitude
Rises 17:19:17 0° 205° (SSW) 2,710 5.1 -31.5°
Reaches altitude 10° 17:22:10 10° 228° (SW) 1,809 4.4 -32.1°
Maximum altitude 17:24:30 15° 265° (W) 1,496 4.2 -32.6°
Drops below altitude 10° 17:26:49 10° 302° (WNW) 1,799 4.6 -33.1°
Sets 17:29:41 0° 325° (NW) 2,687 5.3 -33.7°
